Home > Weather > Bamberg > Past weeks

Flag for Germany Past Weather in Bamberg, Bavaria, Germany — Yesterday and Last 2 Weeks

Now
55 °F

Clear.


Feels Like: 55 °F
Forecast: 49 / 78 °F
Wind: 1 mph from Southeast

Location: Nuernberg

Current Time: Aug 30, 2016 at 5:23:26 AM

Latest Report: Aug 30, 2016 at 4:50 AM


Visibility: 10 mi

Pressure: 30.21 "Hg

Humidity: 94%

Dew Point: 54 °F

Location of BambergLocation

Past Weather in Bamberg — Graph

°F

Bamberg Temperature Yesterday

Maximum temperature yesterday: 79 °F (at 1:50 PM)
Minimum temperature yesterday: 63 °F (at 10:50 PM)
Average temperature yesterday: 71 °F

High & Low Weather Summary for the Past Weeks

 TemperatureHumidityPressure
High91 °F (Aug 28, 3:50 PM)100% (Aug 15, 3:20 AM)30.42 "Hg (Aug 15, 3:20 AM)
Low46 °F (Aug 18, 5:20 AM)22% (Aug 18, 5:50 PM)29.80 "Hg (Aug 18, 3:20 PM)
Average68 °F65%30.09 "Hg
* Reported Aug 15 3:20 AM — Aug 30 3:50 AM, Bamberg, Weather by CustomWeather, © 2016

Note: Actual official high and low records may vary slightly from our data, if they occured in-between our weather recording intervals... More about our weather records

Advertising

Bamberg Weather History for the Previous 24 Hours

Scroll right to see more
 ConditionsComfort  
Time TempWeatherWind HumidityBarometerVisibility
3:50 AM
Tue, Aug 30
55 °FClear.2 mph94%30.21 "Hg10 mi
3:20 AM55 °FClear.1 mph94%30.21 "Hg10 mi
2:50 AM57 °FClear.1 mph88%30.21 "Hg10 mi
2:20 AM57 °FClear.1 mph94%30.21 "Hg10 mi
1:50 AM57 °FClear.2 mph88%30.21 "Hg10 mi
1:20 AM59 °FClear.1 mph82%30.21 "Hg10 mi
12:50 AM59 °FClear.1 mph88%30.21 "Hg10 mi
12:20 AM63 °FClear.2 mph73%30.18 "Hg10 mi
11:50 PM
Mon, Aug 29
63 °FClear.1 mph77%30.18 "Hg10 mi
11:20 PM63 °FClear.2 mph77%30.18 "Hg10 mi
10:50 PM63 °FClear.2 mph77%30.18 "Hg10 mi
10:20 PM64 °FClear.No wind68%30.18 "Hg10 mi
9:50 PM66 °FClear.1 mph64%30.15 "Hg10 mi
9:20 PM68 °FClear.1 mph64%30.15 "Hg10 mi
8:50 PM70 °FSunny.1 mph57%30.12 "Hg10 mi
8:20 PM72 °FSunny.3 mph53%30.12 "Hg10 mi
7:50 PM73 °FPassing clouds.3 mph47%30.09 "HgN/A
7:20 PM75 °FSunny.2 mph41%30.09 "Hg10 mi
6:50 PM75 °FPassing clouds.6 mph41%30.09 "HgN/A
6:20 PM77 °FPassing clouds.5 mph39%30.09 "HgN/A
5:50 PM77 °FSunny.7 mph39%30.07 "Hg10 mi
5:20 PM79 °FPassing clouds.7 mph34%30.07 "HgN/A
4:50 PM77 °FPassing clouds.7 mph39%30.07 "HgN/A
4:20 PM79 °FPassing clouds.7 mph34%30.07 "HgN/A
3:50 PM77 °FPassing clouds.9 mph36%30.07 "HgN/A
3:20 PM77 °FSunny.13 mph36%30.09 "Hg10 mi
2:50 PM77 °FPassing clouds.10 mph42%30.09 "HgN/A
2:20 PM75 °FPassing clouds.10 mph47%30.09 "HgN/A
1:50 PM79 °FPassing clouds.13 mph39%30.09 "HgN/A
1:20 PM77 °FPartly sunny.15 mph39%30.09 "HgN/A
12:50 PM75 °FPartly sunny.12 mph44%30.09 "HgN/A
12:20 PM73 °FPartly sunny.12 mph50%30.09 "HgN/A
11:50 AM73 °FPartly sunny.14 mph57%30.09 "HgN/A
11:20 AM75 °FBroken clouds.9 mph61%30.09 "HgN/A
10:50 AM73 °FBroken clouds.9 mph65%30.09 "HgN/A
10:20 AM72 °FBroken clouds.8 mph69%30.09 "HgN/A
9:50 AM72 °FBroken clouds.9 mph69%30.09 "HgN/A
9:20 AM70 °FBroken clouds.6 mph73%30.07 "HgN/A
8:50 AM70 °FPartly sunny.7 mph73%30.07 "HgN/A
8:20 AM68 °FSunny.7 mph78%30.07 "Hg10 mi
7:50 AM68 °FPassing clouds.5 mph78%30.07 "HgN/A
7:20 AM66 °FClear.2 mph83%30.07 "Hg10 mi
6:50 AM66 °FPassing clouds.5 mph78%30.07 "HgN/A
6:20 AM66 °FPassing clouds.2 mph78%30.04 "HgN/A
5:50 AM68 °FClear.2 mph73%30.04 "Hg10 mi
5:20 AM68 °FClear.1 mph73%30.04 "Hg10 mi
Weather by CustomWeather, © 2016

See weather overviewHow to use our weather pages